Date String (YYYY-MM-DD hh:mm:ss) UTC,Instrument flags,absolute air pressure of the measurement (hPa),sample flow rate (lpm),inlet stack bypass flow (lpm),air temperature of the measurement (°C),ambient temperature measured by the external sensor (°C),aerosol sample conditioner tube jacket temperature (°C),OPC LED temperature (°C),internal box temperature (°C),relative humidity of the measurement (%),span deviation,mass concentration of particles derived from Lorenz-Mie calculation of OPC scattering (μg/m³),mass concentration of particles derived from Lorenz-Mie calculation of OPC scattering (μg/m³),mass concentration of particles derived from Lorenz-Mie calculation of OPC scattering (μg/m³)
DateTimeUTC,F1_M11,P_M11,Q1_M11,Q2_M11,T1_M11,T2_M11,T3_M11,T4_M11,T5_M11,U1_M11,ZSPAN_M11,X2_M11,X0_M11,X1_M11
2023-09-11 02:00:00,SystemResetWarning,0837.6,5.01,000.00,029.0,027.6,000.0,037.2,030.5,32.3,-000.9,0004.69,0007.95,0004.33
2023-09-11 02:01:00,SystemResetWarning,0837.6,5.00,000.00,029.0,027.6,000.0,037.3,030.5,32.2,-001.0,0004.65,0007.86,0004.29
2023-09-11 02:02:00,SystemResetWarning,0837.6,4.99,000.00,029.0,027.4,000.0,037.3,030.5,32.2,-001.1,0004.64,0007.85,0004.27
2023-09-11 02:03:00,SystemResetWarning,0837.6,4.99,000.00,029.0,025.8,000.0,037.2,030.2,32.1,-001.4,0004.60,0007.79,0004.25
2023-09-11 02:04:00,SystemResetWarning,0837.6,5.01,000.00,028.9,024.7,000.0,037.1,030.0,32.1,-001.5,0004.59,0007.81,0004.22
2023-09-11 02:05:00,SystemResetWarning,0837.6,5.00,000.00,028.7,024.5,000.0,037.0,029.7,32.4,-001.3,0004.58,0008.16,0004.21
2023-09-11 02:06:00,SystemResetWarning,0837.6,5.01,000.00,028.6,024.7,000.0,037.0,029.6,32.8,-001.4,0004.55,0008.11,0004.20
2023-09-11 02:07:00,SystemResetWarning,0837.7,5.00,000.00,028.5,025.1,000.0,037.0,029.6,33.0,-001.6,0004.50,0007.87,0004.18
2023-09-11 02:08:00,SystemResetWarning,0837.6,5.00,000.00,028.5,025.4,000.0,037.0,029.6,33.1,-002.2,0004.47,0007.78,0004.16
2023-09-11 02:09:00,SystemResetWarning,0837.7,4.99,000.00,028.4,025.8,000.0,037.0,029.7,33.1,-001.9,0004.44,0007.72,0004.14
2023-09-11 02:10:00,SystemResetWarning,0837.7,5.00,000.00,028.4,026.0,000.0,036.9,029.7,33.1,-001.4,0004.43,0007.72,0004.13
2023-09-11 02:11:00,SystemResetWarning,0837.6,5.00,000.00,028.4,026.2,000.0,036.9,029.8,33.0,-001.2,0004.42,0007.71,0004.12
2023-09-11 02:12:00,SystemResetWarning,0837.6,5.00,000.00,028.4,026.4,000.0,036.9,029.8,33.0,-001.3,0004.42,0007.78,0004.11
2023-09-11 02:13:00,SystemResetWarning,0837.7,4.99,000.00,028.4,026.6,000.0,036.9,029.8,32.8,-001.2,0004.42,0007.82,0004.09
2023-09-11 02:14:00,SystemResetWarning,0837.6,4.99,000.00,028.4,026.7,000.0,036.9,029.9,32.9,-000.4,0004.41,0007.80,0004.08
2023-09-11 02:15:00,SystemResetWarning,0837.6,4.99,000.00,028.4,026.8,000.0,036.9,029.9,32.6,0000.2,0004.38,0007.73,0004.08
2023-09-11 02:16:00,SystemResetWarning,0837.7,5.00,000.00,028.4,026.9,000.0,036.9,029.9,32.4,0000.1,0004.37,0007.32,0004.07
2023-09-11 02:17:00,SystemResetWarning,0837.6,5.00,000.00,028.5,027.0,000.0,036.9,030.0,32.0,-000.4,0004.38,0007.33,0004.06
2023-09-11 02:18:00,SystemResetWarning,0837.6,5.00,000.00,028.5,027.1,000.0,036.9,030.0,31.4,-000.5,0004.37,0007.31,0004.05
2023-09-11 02:19:00,SystemResetWarning,0837.6,5.01,000.00,028.5,027.1,000.0,036.9,030.1,31.0,0000.4,0004.37,0007.18,0004.04
2023-09-11 02:20:00,SystemResetWarning,0837.6,5.00,000.00,028.5,027.2,000.0,036.9,030.1,30.1,0000.2,0004.36,0007.18,0004.03
2023-09-11 02:21:00,SystemResetWarning,0837.6,5.01,000.00,028.5,027.2,000.0,036.9,030.1,28.0,-000.5,0004.33,0007.10,0004.01
2023-09-11 02:22:00,SystemResetWarning,0837.6,5.00,000.00,028.6,027.3,000.0,036.9,030.1,27.2,-001.0,0004.32,0007.07,0004.00
2023-09-11 02:23:00,SystemResetWarning,0837.6,4.99,000.00,028.6,027.3,000.0,036.9,030.2,26.9,-000.9,0004.32,0007.02,0003.99
2023-09-11 02:24:00,SystemResetWarning,0837.6,5.00,000.00,028.6,027.4,000.0,036.9,030.2,26.7,-000.6,0004.29,0006.84,0003.99
2023-09-11 02:25:00,SystemResetWarning,0837.5,4.99,000.00,028.6,027.4,000.0,037.0,030.3,26.7,-000.6,0004.27,0006.75,0003.98
2023-09-11 02:26:00,SystemResetWarning,0837.6,5.00,000.00,028.7,027.5,000.0,037.0,030.3,26.2,-001.0,0004.28,0006.80,0003.98
2023-09-11 02:27:00,SystemResetWarning,0837.6,5.00,000.00,028.7,027.5,000.0,037.0,030.4,26.0,-001.6,0004.27,0006.95,0003.97
2023-09-11 02:28:00,SystemResetWarning,0837.6,5.01,000.00,028.7,027.5,000.0,037.0,030.4,25.8,-001.6,0004.28,0007.15,0003.97
2023-09-11 02:29:00,SystemResetWarning,0837.6,5.01,000.00,028.7,027.5,000.0,037.0,030.4,25.8,-001.6,0004.28,0007.24,0003.97
2023-09-11 02:30:00,SystemResetWarning,0837.7,5.01,000.00,028.8,027.6,000.0,037.0,030.4,25.9,-001.8,0004.28,0007.28,0003.97
2023-09-11 02:31:00,SystemResetWarning,0837.8,4.99,000.00,028.8,027.6,000.0,037.0,030.5,28.9,-001.4,0004.27,0007.19,0003.98
2023-09-11 02:32:00,SystemResetWarning,0837.8,4.99,000.00,028.8,027.6,000.0,037.1,030.5,32.5,-001.3,0004.25,0007.07,0003.99
2023-09-11 02:33:00,SystemResetWarning,0837.8,4.99,000.00,028.8,027.7,000.0,037.1,030.5,33.4,-001.2,0004.24,0006.98,0003.98
2023-09-11 02:34:00,SystemResetWarning,0837.8,5.00,000.00,028.9,027.7,000.0,037.1,030.5,33.7,-001.0,0004.23,0006.93,0003.96
2023-09-11 02:35:00,SystemResetWarning,0837.7,5.01,000.00,028.9,027.7,000.0,037.1,030.6,33.7,-001.4,0004.24,0007.02,0003.97
2023-09-11 02:36:00,SystemResetWarning,0837.8,5.01,000.00,028.9,027.7,000.0,037.1,030.6,33.6,-001.5,0004.26,0007.18,0003.97
2023-09-11 02:37:00,SystemResetWarning,0837.8,5.00,000.00,028.9,027.7,000.0,037.2,030.6,33.5,-001.5,0004.29,0007.28,0003.98
2023-09-11 02:38:00,SystemResetWarning,0837.9,5.00,000.00,028.9,027.8,000.0,037.2,030.6,33.6,-000.9,0004.31,0007.20,0003.99
2023-09-11 02:39:00,SystemResetWarning,0837.8,5.00,000.00,029.0,027.8,000.0,037.2,030.6,33.8,-000.4,0004.28,0006.92,0003.99
2023-09-11 02:40:00,SystemResetWarning,0837.9,4.99,000.00,029.0,027.5,000.0,037.2,030.6,33.9,-000.4,0004.31,0007.00,0004.00
2023-09-11 02:41:00,SystemResetWarning,0837.8,4.99,000.00,028.9,025.8,000.0,037.1,030.3,34.1,-000.9,0004.31,0007.06,0004.00
2023-09-11 02:42:00,SystemResetWarning,0837.8,5.01,000.00,028.9,024.7,000.0,037.0,030.1,34.3,-000.9,0004.34,0007.29,0004.01
2023-09-11 02:43:00,SystemResetWarning,0837.8,5.01,000.00,028.7,024.6,000.0,037.0,029.8,34.7,-001.1,0004.35,0007.35,0004.01
2023-09-11 02:44:00,SystemResetWarning,0837.7,4.98,000.00,028.6,024.9,000.0,037.0,029.7,35.2,-001.2,0004.36,0008.25,0004.02
2023-09-11 02:45:00,SystemResetWarning,0837.7,5.02,000.00,028.7,025.3,000.0,037.0,029.8,35.3,-001.2,0004.37,0008.44,0004.03
2023-09-11 02:46:00,SystemResetWarning,0837.9,5.00,000.00,029.0,025.6,000.0,037.0,030.0,34.7,-001.3,0004.35,0008.35,0004.04
2023-09-11 02:47:00,SystemResetWarning,0838.0,4.98,000.00,029.2,026.0,000.0,037.0,030.1,34.4,-001.5,0004.37,0008.32,0004.05
2023-09-11 02:48:00,SystemResetWarning,0838.0,5.03,000.00,029.3,026.3,000.0,037.0,030.1,34.2,-001.7,0004.36,0008.36,0004.05
2023-09-11 02:49:00,SystemResetWarning,0838.0,4.99,000.00,029.4,026.5,000.0,037.1,030.1,34.1,-002.0,0004.35,0008.53,0004.03
2023-09-11 02:50:00,SystemResetWarning,0838.0,4.99,000.00,029.4,026.7,000.0,037.2,030.2,34.1,-002.0,0004.37,0008.94,0004.03
2023-09-11 02:51:00,SystemResetWarning,0838.0,5.01,000.00,029.5,026.9,000.0,037.2,030.2,34.1,-001.7,0004.37,0009.04,0004.03
2023-09-11 02:52:00,SystemResetWarning,0838.0,5.01,000.00,029.5,027.0,000.0,037.3,030.3,34.1,-001.0,0004.37,0009.10,0004.03
2023-09-11 02:53:00,SystemResetWarning,0838.0,5.01,000.00,029.5,027.1,000.0,037.3,030.3,34.1,-001.2,0004.37,0009.06,0004.02
2023-09-11 02:54:00,SystemResetWarning,0838.0,5.00,000.00,029.5,027.2,000.0,037.4,030.4,34.2,-001.2,0004.37,0009.08,0004.00
2023-09-11 02:55:00,SystemResetWarning,0838.0,5.00,000.00,029.5,027.3,000.0,037.4,030.4,34.2,-001.0,0004.37,0008.37,0003.99
2023-09-11 02:56:00,SystemResetWarning,0837.9,5.00,000.00,029.5,027.4,000.0,037.5,030.4,34.3,-000.9,0004.34,0007.96,0003.98
2023-09-11 02:57:00,SystemResetWarning,0837.9,5.00,000.00,029.6,027.4,000.0,037.5,030.5,34.2,-001.0,0004.33,0007.93,0003.97
2023-09-11 02:58:00,SystemResetWarning,0838.0,5.00,000.00,029.6,027.5,000.0,037.5,030.5,34.1,-000.8,0004.29,0007.87,0003.95
2023-09-11 02:59:00,SystemResetWarning,0838.0,4.99,000.00,029.6,027.5,000.0,037.6,030.5,34.1,-000.3,0004.26,0007.73,0003.94
